Temp_Advection
nan nan nan nan nan nan nan nan nan nan nan nan nan nan nan nan nan nan nan nan nan nan nan nan nan nan nan nan nan nan nan nan nan nan nan nan nan nan
nan -0 -1 -0 0 1 -0 -0 0 -0 -0 0 0 -0 0 -0 0 0 0 0 0 -0 0 0 -0 -1 0 0 0 0 0 0 0 -0 -0 -0 -0 nan
nan -1 -1 1 0 -0 1 1 1 -0 0 0 0 -0 -0 0 0 1 0 0 0 0 0 0 0 0 0 0 0 0 0 0 0 0 -0 -0 -0 nan
nan -1 -1 1 -0 -0 1 2 0 0 0 -0 -0 0 1 1 0 1 0 0 0 0 0 1 0 0 0 0 0 0 0 0 0 0 0 0 0 nan
nan -2 1 -0 -0 -0 1 0 -0 0 0 -0 -0 1 2 1 0 0 0 0 0 0 0 0 0 1 1 0 0 -0 0 0 0 0 0 0 0 nan
nan -1 -1 -2 -0 -0 -0 -0 1 0 0 0 1 1 1 1 2 0 0 0 0 0 0 0 1 0 0 1 -0 -0 0 -0 -0 0 0 0 0 nan
nan -4 -3 -2 0 0 -0 0 -1 1 -0 0 1 0 0 1 1 1 0 0 1 0 0 0 1 1 1 0 0 -0 -0 0 0 -0 0 0 0 nan
nan -6 -3 -0 1 -0 -0 -1 -0 -1 -3 -3 -3 -3 -2 -1 -1 1 -0 0 1 1 0 1 1 0 0 0 1 -0 -0 0 0 -0 0 0 0 nan
nan -4 -2 -0 -1 -1 -1 0 0 -2 -1 -2 -5 -5 -3 -4 -4 -5 -1 2 1 1 0 1 1 0 0 0 1 -0 -1 0 1 0 0 0 0 nan
nan -3 -4 -0 0 -2 -1 0 0 1 2 -1 -3 0 -1 -3 -2 3 6 2 1 1 1 1 0 0 0 1 0 0 -1 0 1 0 0 0 0 nan
nan -1 -3 0 -2 -2 -0 0 0 1 1 2 2 2 1 2 5 3 -2 -1 0 0 0 1 1 0 0 0 1 1 1 1 -0 0 1 -0 -0 nan
nan -1 -3 -2 -3 -1 0 0 0 -0 0 2 2 1 1 2 2 -1 0 -0 -2 -2 -2 0 0 0 1 0 -0 0 0 1 1 0 0 -0 -0 nan
nan -2 -3 -6 -5 0 1 -0 -0 -1 2 1 0 0 1 1 2 3 -1 -0 -0 -2 0 -0 -1 -1 -0 -0 -1 0 0 0 1 1 0 -1 -1 nan
nan -2 -4 -7 -2 0 0 -0 0 1 3 1 -0 -0 -0 -0 1 -0 1 2 0 -0 1 1 -0 1 1 -2 -2 0 1 1 -0 0 0 -1 -1 nan
nan -1 -3 -3 1 -1 -0 -0 0 1 1 -0 -1 -2 -1 1 2 1 1 -0 0 1 2 1 0 1 0 -1 0 0 0 1 0 1 -0 -1 -0 nan
nan -1 -1 -0 -1 -2 -0 -0 1 1 1 -1 -1 -0 2 3 1 -1 -1 -1 -0 0 1 0 1 1 1 0 1 1 1 0 0 1 1 0 0 nan
nan -1 -1 -2 -3 -2 -1 0 1 0 1 -0 0 1 0 0 -1 0 -0 -0 -0 0 0 0 1 1 1 0 1 1 1 0 0 1 0 0 1 nan
nan -1 -1 -1 -2 -1 -1 -0 -0 0 -0 -0 -0 -0 0 -0 -0 -0 -1 0 1 0 -0 0 1 0 -0 0 0 0 0 0 0 0 0 1 1 nan
nan -1 -2 -2 -1 -1 -1 -1 -0 -0 -0 -0 0 0 0 -1 1 -0 -1 0 0 -0 0 2 1 -1 -1 -2 -1 -0 -1 -0 0 0 0 1 1 nan
nan -2 -3 -2 -0 -1 -1 -1 -1 -0 -0 -0 -0 -1 -0 0 2 -1 -1 -0 -0 -0 1 1 -2 -1 -1 0 1 0 0 1 0 0 0 1 1 nan
nan -2 -2 -1 -1 -1 -1 -2 -0 -0 -1 -1 -1 0 1 0 -0 -1 -0 1 0 -1 -1 -1 0 2 2 2 1 -0 1 1 1 0 1 1 -0 nan
nan -2 -1 -1 -0 -1 -1 -0 -0 -1 0 0 -0 1 -1 -1 1 0 1 1 -1 -1 1 1 2 2 1 1 0 1 1 1 1 1 1 0 1 nan
nan nan nan nan nan nan nan nan nan nan nan nan nan nan nan nan nan nan nan nan nan nan nan nan nan nan nan nan nan nan nan nan nan nan nan nan nan nan
Wind_Speed
41 38 30 42 49 62 60 60 58 40 36 40 45 45 40 39 36 34 33 32 29 26 25 26 24 21 17 12 9 6 4 1 2 4 6 8 10 14
46 41 32 29 53 58 69 64 59 53 44 49 50 50 44 39 36 35 36 35 31 28 29 27 22 20 16 13 10 7 5 3 3 4 6 8 10 13
45 43 39 29 49 59 67 66 62 51 42 41 44 49 47 43 38 37 37 37 34 32 31 27 24 20 14 13 12 10 8 7 6 5 6 8 9 11
44 48 43 27 49 61 68 66 63 56 45 47 46 50 52 47 42 40 37 37 36 35 32 29 26 22 18 15 14 12 11 9 8 7 8 9 10 10
44 50 52 33 39 67 65 65 68 56 45 49 49 51 52 52 43 40 38 38 38 36 34 30 28 25 22 19 19 16 13 11 10 9 9 9 10 11
47 50 55 37 32 66 68 65 63 60 47 48 48 49 54 54 49 46 43 41 39 37 35 33 31 28 25 22 20 20 15 13 11 11 10 10 11 11
49 53 58 46 33 52 70 65 63 60 52 51 50 49 47 50 54 53 48 45 41 41 40 37 35 33 30 27 23 23 19 16 13 13 12 11 11 12
45 53 58 47 31 43 70 68 71 66 62 57 54 51 48 55 56 54 53 49 49 44 44 42 39 37 35 31 27 26 21 18 16 15 14 12 12 12
44 49 57 58 34 36 69 68 71 72 64 64 59 54 52 52 52 57 58 57 49 47 46 44 42 40 37 32 30 27 25 21 20 17 16 15 13 13
36 47 54 58 44 28 71 64 70 67 62 56 50 48 49 46 42 46 59 54 47 44 47 45 44 45 39 36 33 29 28 24 22 19 18 17 15 14
44 40 53 66 49 36 68 66 66 68 58 54 51 48 47 46 43 47 48 53 46 42 45 45 49 44 42 39 36 32 29 27 24 22 21 19 16 14
44 42 49 64 52 32 65 68 68 67 62 55 47 43 41 44 43 41 45 52 51 48 52 47 45 43 42 44 39 36 34 32 28 25 24 22 19 15
35 37 52 59 51 32 56 68 69 64 60 59 51 46 40 40 42 45 43 40 45 49 46 49 47 41 35 20 38 40 38 34 31 28 27 26 21 17
31 33 44 54 47 25 48 64 66 63 61 60 54 48 45 42 43 46 39 41 40 39 36 31 43 43 42 38 26 23 38 38 34 31 29 26 22 18
29 27 37 49 58 37 51 57 64 64 60 59 58 53 48 44 41 44 43 39 39 38 35 29 30 30 36 38 35 32 23 30 33 32 31 28 24 19
32 27 29 36 57 43 47 58 61 61 61 56 54 49 49 48 45 47 46 44 41 39 34 32 29 30 30 30 29 30 29 23 26 29 29 27 24 21
35 29 30 32 48 39 44 57 56 56 53 51 50 50 51 49 47 49 48 45 44 42 39 39 33 32 29 26 25 27 28 27 24 22 29 28 25 22
34 30 41 30 48 36 45 55 58 55 53 50 50 47 49 52 53 52 48 46 48 44 43 42 39 35 33 30 28 27 28 27 26 25 24 26 27 25
34 34 42 46 38 35 48 57 57 52 52 52 50 51 49 49 53 53 49 49 49 45 44 44 41 40 39 38 34 33 29 28 28 26 23 25 27 24
36 34 40 47 35 37 49 54 51 52 52 52 53 49 45 47 54 54 53 52 51 48 45 45 43 42 41 40 36 34 34 29 27 27 28 27 26 25
35 36 39 48 29 38 51 53 52 52 50 52 50 49 49 49 53 54 54 54 53 50 47 45 42 39 39 36 30 29 28 32 28 27 27 27 29 27
35 31 38 50 27 41 47 54 55 48 48 53 52 50 52 48 49 52 57 57 54 49 45 42 42 43 41 39 36 32 31 31 34 30 28 29 29 29
43 29 40 45 38 32 45 48 45 47 48 50 52 52 50 50 51 52 56 56 52 49 47 44 43 41 41 40 38 35 32 32 33 34 32 32 32 28
Wind_Direction
229 217 205 213 200 188 187 186 182 174 178 186 188 200 203 204 202 197 189 191 191 190 191 198 191 187 187 182 182 181 187 195 351 7 3 357 4 6
226 230 212 198 194 191 199 195 191 183 181 193 194 199 200 202 205 201 198 192 193 192 200 204 203 210 196 192 199 204 219 248 292 321 342 341 353 358
227 222 220 191 196 189 193 198 197 191 188 187 193 201 198 201 201 206 201 195 196 198 206 209 209 220 217 212 214 222 232 248 270 298 317 326 338 345
230 224 215 213 199 192 199 200 196 195 188 184 190 199 202 201 203 203 201 201 199 203 206 213 215 218 226 229 227 232 238 249 267 284 297 311 321 330
233 225 222 225 201 195 194 195 200 197 193 195 188 199 199 201 200 205 204 205 206 206 210 213 219 220 226 234 233 235 239 248 261 274 282 293 304 315
230 224 226 220 200 196 197 197 198 198 192 191 194 188 198 200 199 202 203 209 207 208 213 217 221 225 229 232 242 233 238 247 260 270 277 281 290 301
232 227 221 220 199 200 196 195 193 190 188 189 191 186 187 188 195 202 207 205 209 213 212 215 218 223 226 229 235 247 236 244 254 266 272 276 280 291
233 231 223 213 214 201 198 203 204 188 192 191 193 189 188 203 202 200 203 207 205 211 215 217 219 224 227 230 234 241 244 242 250 258 266 270 275 284
231 232 221 219 224 207 195 197 203 207 210 211 209 210 203 205 204 202 207 211 206 208 211 217 220 226 231 232 236 239 248 241 243 251 259 264 271 277
228 232 225 216 223 211 198 196 201 205 208 217 224 219 218 214 214 220 210 207 212 215 213 215 219 227 228 232 236 240 248 244 238 244 253 259 267 272
225 222 223 220 216 204 196 196 202 204 205 212 221 220 220 218 212 200 199 205 200 206 218 220 223 224 229 232 235 238 242 248 247 245 249 253 259 265
227 229 220 221 216 203 196 196 198 198 202 201 205 215 217 217 215 220 218 211 209 210 222 212 220 219 227 233 232 235 238 240 243 247 250 249 254 257
219 223 223 222 213 191 195 202 206 206 208 202 203 208 210 213 210 211 220 225 218 219 225 215 218 219 216 228 233 231 234 237 238 241 244 246 250 251
218 220 225 217 209 206 193 205 209 209 208 203 200 203 205 207 206 208 216 221 227 234 233 229 225 226 221 224 227 227 228 233 235 237 240 246 247 242
216 218 224 220 213 216 191 202 206 209 206 204 207 208 213 213 208 204 208 213 221 226 227 229 230 231 231 232 232 229 225 226 230 232 236 239 240 238
215 206 215 216 218 213 201 203 207 208 209 207 210 213 212 210 203 205 206 208 213 217 216 222 223 223 226 231 234 233 230 224 231 228 231 234 235 230
203 211 200 208 209 220 202 201 205 208 208 212 209 209 209 207 205 207 208 209 212 213 211 214 212 215 220 227 228 225 226 226 228 227 227 230 230 229
205 205 202 202 202 213 195 196 203 208 209 212 209 210 212 208 209 209 209 210 213 211 212 214 211 208 212 218 220 222 223 221 225 226 225 227 229 226
210 209 202 199 200 203 197 198 201 205 211 213 214 211 207 211 212 209 209 211 213 214 215 218 213 213 212 214 215 217 221 220 220 220 223 225 224 223
208 212 209 203 202 209 198 204 205 208 210 213 209 207 211 214 214 211 211 211 213 214 215 216 216 219 220 222 215 218 219 216 219 220 218 219 218 217
201 205 202 199 203 206 200 205 211 210 212 215 214 216 213 216 215 215 213 214 215 216 217 217 219 220 222 224 221 220 220 217 216 223 220 218 217 220
200 200 196 197 197 203 204 207 209 210 216 217 216 217 214 218 219 214 212 214 215 219 221 219 217 217 218 221 222 221 216 213 213 209 212 222 224 223
200 194 206 202 207 202 209 209 212 213 216 218 219 218 219 220 220 219 215 215 217 216 218 217 216 215 218 218 222 219 216 214 212 208 207 212 222 234
Height
1436 1441 1449 1456 1459 1458 1466 1474 1480 1495 1507 1512 1517 1525 1532 1540 1547 1552 1557 1563 1567 1572 1574 1575 1578 1580 1583 1586 1588 1589 1591 1591 1591 1591 1591 1590 1590 1588
1428 1432 1437 1441 1448 1453 1457 1468 1478 1484 1494 1501 1507 1515 1526 1535 1543 1549 1553 1559 1564 1569 1571 1573 1576 1578 1581 1584 1586 1588 1589 1590 1590 1590 1590 1589 1589 1587
1420 1423 1430 1431 1439 1444 1449 1460 1471 1482 1492 1497 1505 1512 1521 1530 1537 1544 1550 1555 1561 1565 1567 1571 1575 1577 1580 1583 1584 1586 1588 1588 1588 1589 1589 1589 1588 1586
1412 1417 1421 1429 1431 1435 1443 1453 1463 1472 1483 1489 1497 1505 1514 1522 1531 1538 1545 1551 1556 1560 1564 1568 1572 1575 1578 1580 1582 1584 1586 1586 1587 1587 1587 1587 1586 1585
1402 1406 1413 1416 1421 1425 1435 1442 1452 1465 1477 1483 1490 1499 1507 1514 1526 1535 1541 1546 1551 1557 1562 1566 1569 1572 1575 1577 1578 1581 1582 1583 1584 1585 1585 1585 1585 1584
1393 1396 1399 1406 1409 1416 1428 1433 1443 1455 1469 1478 1483 1491 1498 1507 1517 1524 1533 1539 1545 1551 1557 1561 1565 1569 1571 1573 1574 1577 1579 1580 1581 1582 1582 1583 1583 1582
1381 1384 1389 1396 1399 1410 1415 1425 1434 1445 1457 1467 1475 1484 1491 1499 1505 1514 1525 1532 1539 1543 1549 1553 1558 1562 1565 1568 1570 1571 1574 1576 1577 1578 1579 1579 1580 1579
1370 1369 1376 1385 1390 1398 1405 1416 1421 1433 1443 1453 1463 1471 1480 1487 1496 1505 1515 1524 1527 1534 1541 1546 1551 1555 1558 1562 1566 1567 1569 1572 1574 1574 1575 1576 1577 1577
1361 1365 1367 1376 1385 1392 1398 1407 1415 1423 1434 1439 1450 1461 1470 1476 1485 1496 1504 1511 1518 1525 1534 1539 1545 1548 1552 1557 1560 1563 1564 1566 1569 1570 1571 1572 1572 1573
1352 1353 1357 1366 1374 1380 1390 1399 1408 1417 1428 1437 1445 1454 1462 1470 1475 1483 1493 1508 1517 1520 1527 1532 1537 1539 1546 1549 1553 1557 1559 1561 1563 1566 1567 1568 1568 1569
1342 1346 1350 1356 1368 1375 1382 1390 1402 1411 1421 1432 1441 1449 1457 1466 1471 1481 1490 1498 1504 1511 1518 1525 1527 1534 1539 1543 1546 1550 1554 1555 1557 1559 1562 1563 1563 1564
1333 1338 1341 1348 1359 1365 1372 1380 1391 1401 1411 1425 1435 1443 1454 1461 1468 1471 1475 1483 1494 1502 1505 1515 1518 1525 1532 1533 1538 1542 1545 1548 1551 1554 1555 1558 1559 1560
1326 1331 1332 1342 1351 1355 1368 1373 1382 1394 1405 1417 1428 1436 1445 1454 1462 1468 1472 1478 1482 1488 1492 1504 1509 1516 1523 1522 1527 1532 1537 1541 1543 1547 1550 1552 1554 1556
1316 1321 1326 1331 1340 1346 1358 1367 1379 1388 1397 1407 1418 1427 1436 1445 1454 1461 1467 1473 1479 1486 1493 1497 1501 1506 1511 1515 1520 1523 1528 1532 1536 1540 1543 1546 1548 1551
1308 1315 1318 1323 1333 1344 1351 1361 1369 1378 1386 1397 1408 1419 1429 1439 1448 1457 1461 1468 1475 1481 1488 1491 1496 1502 1505 1508 1511 1517 1523 1524 1528 1532 1535 1539 1542 1545
1306 1312 1317 1322 1331 1339 1347 1354 1360 1370 1377 1390 1402 1413 1422 1431 1438 1446 1451 1458 1466 1474 1482 1485 1490 1496 1498 1502 1507 1511 1516 1520 1521 1525 1529 1533 1536 1540
1301 1306 1313 1319 1323 1334 1338 1345 1354 1363 1371 1383 1393 1402 1413 1423 1429 1438 1444 1452 1457 1464 1472 1477 1483 1489 1494 1498 1501 1504 1509 1513 1517 1520 1523 1525 1530 1534
1292 1299 1300 1306 1320 1325 1330 1337 1347 1356 1365 1377 1387 1395 1404 1412 1420 1430 1439 1446 1450 1455 1464 1468 1474 1482 1487 1491 1495 1498 1503 1508 1512 1514 1518 1521 1525 1529
1284 1293 1300 1308 1313 1319 1325 1330 1339 1349 1359 1371 1380 1389 1396 1404 1412 1420 1430 1437 1443 1449 1456 1462 1467 1473 1477 1481 1487 1491 1497 1501 1505 1509 1514 1516 1520 1524
1282 1285 1286 1297 1305 1317 1318 1326 1335 1343 1353 1365 1374 1380 1387 1395 1404 1411 1420 1427 1435 1441 1446 1455 1460 1465 1469 1472 1479 1484 1489 1495 1500 1504 1507 1511 1517 1520
1273 1278 1283 1295 1302 1307 1313 1320 1330 1338 1347 1358 1365 1371 1379 1388 1395 1403 1412 1419 1426 1432 1437 1444 1451 1461 1467 1471 1478 1481 1484 1489 1494 1498 1502 1506 1510 1512
1268 1275 1281 1291 1294 1302 1308 1317 1327 1333 1341 1351 1357 1365 1373 1379 1386 1393 1401 1409 1416 1423 1431 1439 1446 1452 1458 1463 1468 1474 1478 1482 1487 1492 1496 1501 1503 1504
1262 1270 1276 1283 1291 1299 1306 1313 1320 1327 1336 1343 1349 1357 1364 1370 1377 1385 1392 1401 1408 1415 1422 1430 1437 1445 1451 1456 1461 1467 1472 1476 1479 1484 1489 1493 1496 1499